TimeCDT,TemperatureF,Dew PointF,Humidity,Sea Level PressureIn,VisibilityMPH,Wind Direction,Wind SpeedMPH,Gust SpeedMPH,PrecipitationIn,Events,Conditions,WindDirDegrees,DateUTC
12:53 AM,42.1,30.9,65,30.06,10.0,South,6.9,-,N/A,,Clear,180,2012-10-09 05:53:00
1:53 AM,42.1,30.9,65,30.07,10.0,South,5.8,-,N/A,,Clear,190,2012-10-09 06:53:00
3:53 AM,42.1,32.0,67,30.04,10.0,South,6.9,-,N/A,,Clear,190,2012-10-09 08:53:00
4:53 AM,41.0,32.0,70,30.04,10.0,South,4.6,-,N/A,,Clear,190,2012-10-09 09:53:00
5:53 AM,39.9,32.0,73,30.04,10.0,South,6.9,-,N/A,,Clear,190,2012-10-09 10:53:00
6:53 AM,41.0,34.0,76,30.05,10.0,SSW,9.2,-,N/A,,Clear,210,2012-10-09 11:53:00
7:53 AM,43.0,35.1,74,30.04,10.0,SSW,9.2,-,N/A,,Clear,200,2012-10-09 12:53:00
8:53 AM,48.9,37.0,64,30.04,10.0,SSW,12.7,20.7,N/A,,Clear,200,2012-10-09 13:53:00
9:53 AM,55.0,37.9,53,30.01,10.0,SSW,17.3,25.3,N/A,,Clear,200,2012-10-09 14:53:00
10:53 AM,59.0,37.9,46,30.00,10.0,SSW,18.4,28.8,N/A,,Clear,200,2012-10-09 15:53:00
11:53 AM,61.0,39.0,44,29.98,10.0,South,17.3,27.6,N/A,,Clear,190,2012-10-09 16:53:00
12:53 PM,64.0,37.9,38,29.94,10.0,SSW,17.3,31.1,N/A,,Clear,210,2012-10-09 17:53:00
1:53 PM,64.9,37.9,37,29.90,10.0,South,21.9,29.9,N/A,,Clear,190,2012-10-09 18:53:00
2:53 PM,64.9,37.0,36,29.90,10.0,SSW,25.3,34.5,N/A,,Clear,200,2012-10-09 19:53:00
3:53 PM,64.9,37.9,37,29.88,10.0,SW,23.0,31.1,N/A,,Clear,220,2012-10-09 20:53:00
4:53 PM,63.0,37.9,40,29.87,10.0,SSW,18.4,31.1,N/A,,Clear,210,2012-10-09 21:53:00
5:53 PM,61.0,39.0,44,29.88,10.0,SSW,17.3,25.3,N/A,,Clear,210,2012-10-09 22:53:00
6:53 PM,59.0,39.9,49,29.87,10.0,SSW,12.7,-,N/A,,Clear,200,2012-10-09 23:53:00
7:53 PM,57.9,39.9,51,29.87,10.0,SSW,10.4,-,N/A,,Mostly Cloudy,200,2012-10-10 00:53:00
8:53 PM,57.9,41.0,53,29.85,10.0,SSW,12.7,-,N/A,,Mostly Cloudy,200,2012-10-10 01:53:00
9:53 PM,57.0,41.0,55,29.86,10.0,SW,11.5,-,N/A,,Overcast,220,2012-10-10 02:53:00
10:30 PM,48.2,42.8,82,29.90,5.0,NW,16.1,24.2,0.03,Rain,Light Rain,310,2012-10-10 03:30:00
10:53 PM,46.0,43.0,89,29.92,10.0,NW,11.5,20.7,0.07,Rain,Light Rain,320,2012-10-10 03:53:00
11:53 PM,46.0,43.0,89,29.92,10.0,WNW,8.1,-,0.04,,Overcast,300,2012-10-10 04:53:00